• In Czech Republic
  • List of Countries
  • For 7 days
  • Water Temperature
  • Satellite Maps
  • Weather Map
  • Weather Widgets
  • user-avatar
    Login

    Hourly Weather Aba-el-Baul

    Today, 15 December, Friday

    Time Temperature Precipitation Wind Pressure Humidity
    00:00 +19°C° 0 mm 2 mps 757 mmHg 71%
    01:00 +19°C° 0 mm 2 mps 757 mmHg 72%
    02:00 +18°C° 0 mm 2 mps 757 mmHg 72%
    03:00 +18°C° 0 mm 2 mps 757 mmHg 69%
    04:00 +18°C° 0 mm 2 mps 757 mmHg 69%
    05:00 +17°C° 0 mm 2 mps 757 mmHg 70%
    06:00 +17°C° 0 mm 2 mps 758 mmHg 70%
    07:00 +19°C° 0 mm 3 mps 758 mmHg 62%
    08:00 +20°C° 0 mm 3 mps 758 mmHg 55%
    09:00 +21°C° 0 mm 4 mps 759 mmHg 41%
    10:00 +23°C° 0 mm 4 mps 758 mmHg 35%
    11:00 +25°C° 0 mm 5 mps 758 mmHg 30%
    12:00 +26°C° 0 mm 5 mps 758 mmHg 25%
    13:00 +26°C° 0 mm 5 mps 758 mmHg 24%
    14:00 +27°C° 0 mm 4 mps 757 mmHg 22%
    15:00 +27°C° 0 mm 4 mps 757 mmHg 21%
    16:00 +25°C° 0 mm 3 mps 757 mmHg 24%
    17:00 +24°C° 0 mm 3 mps 757 mmHg 27%
    18:00 +21°C° 0 mm 2 mps 757 mmHg 30%
    19:00 +21°C° 0 mm 2 mps 758 mmHg 33%
    20:00 +20°C° 0 mm 2 mps 758 mmHg 36%
    21:00 +21°C° 0 mm 1 mps 758 mmHg 39%
    22:00 +20°C° 0 mm 1 mps 758 mmHg 40%
    23:00 +20°C° 0 mm 1 mps 758 mmHg 41%

    Tomorrow, 16 December, Saturday

    Time Temperature Precipitation Wind Pressure Humidity
    00:00 +17°C° 0 mm 0 mps 758 mmHg 42%
    01:00 +19°C° 0 mm 1 mps 758 mmHg 42%
    02:00 +20°C° 0 mm 1 mps 758 mmHg 41%
    03:00 +19°C° 0 mm 2 mps 758 mmHg 40%
    04:00 +19°C° 0 mm 2 mps 758 mmHg 41%
    05:00 +19°C° 0 mm 3 mps 759 mmHg 42%
    06:00 +19°C° 0 mm 4 mps 759 mmHg 43%
    07:00 +20°C° 0 mm 5 mps 759 mmHg 41%
    08:00 +21°C° 0 mm 5 mps 760 mmHg 39%
    09:00 +22°C° 0 mm 5 mps 760 mmHg 36%
    10:00 +23°C° 0 mm 5 mps 760 mmHg 35%
    11:00 +25°C° 0 mm 5 mps 760 mmHg 34%
    12:00 +26°C° 0 mm 4 mps 759 mmHg 33%
    13:00 +25°C° 0 mm 4 mps 759 mmHg 33%
    14:00 +25°C° 0 mm 4 mps 759 mmHg 34%
    15:00 +25°C° 0 mm 4 mps 758 mmHg 34%
    16:00 +23°C° 0.1 mm 4 mps 759 mmHg 38%
    17:00 +22°C° 0.1 mm 4 mps 759 mmHg 42%
    18:00 +21°C° 0.1 mm 4 mps 759 mmHg 46%
    19:00 +20°C° 0 mm 4 mps 760 mmHg 49%
    20:00 +20°C° 0 mm 4 mps 760 mmHg 51%
    21:00 +20°C° 0 mm 4 mps 760 mmHg 54%
    22:00 +20°C° 0.2 mm 4 mps 760 mmHg 55%
    23:00 +19°C° 0.2 mm 4 mps 760 mmHg 56%

    Day after tomorrow, 17 December, Sunday

    Time Temperature Precipitation Wind Pressure Humidity
    00:00 +19°C° 0.2 mm 4 mps 760 mmHg 57%
    01:00 +19°C° 0.3 mm 4 mps 760 mmHg 59%
    02:00 +19°C° 0.3 mm 3 mps 760 mmHg 61%
    03:00 +19°C° 0.3 mm 3 mps 760 mmHg 63%
    04:00 +18°C° 0.1 mm 3 mps 761 mmHg 64%
    05:00 +18°C° 0.1 mm 3 mps 761 mmHg 65%
    06:00 +18°C° 0.1 mm 3 mps 761 mmHg 67%
    07:00 +19°C° 0 mm 3 mps 762 mmHg 63%
    08:00 +20°C° 0 mm 3 mps 762 mmHg 59%
    09:00 +22°C° 0 mm 3 mps 763 mmHg 55%
    10:00 +22°C° 0 mm 3 mps 762 mmHg 52%
    11:00 +24°C° 0 mm 3 mps 762 mmHg 49%
    12:00 +25°C° 0 mm 3 mps 761 mmHg 46%
    13:00 +25°C° 0 mm 3 mps 761 mmHg 46%
    14:00 +25°C° 0 mm 2 mps 761 mmHg 45%
    15:00 +25°C° 0 mm 2 mps 760 mmHg 45%
    16:00 +25°C° 0 mm 2 mps 760 mmHg 48%
    17:00 +24°C° 0 mm 2 mps 761 mmHg 52%
    18:00 +23°C° 0 mm 2 mps 761 mmHg 55%
    19:00 +23°C° 0 mm 2 mps 761 mmHg 57%
    20:00 +23°C° 0 mm 2 mps 762 mmHg 59%
    21:00 +21°C° 0 mm 2 mps 762 mmHg 61%
    22:00 +21°C° 0 mm 2 mps 762 mmHg 62%
    23:00 +21°C° 0 mm 2 mps 762 mmHg 64%

    18 December, Monday

    Time Temperature Precipitation Wind Pressure Humidity
    00:00 +20°C° 0 mm 2 mps 762 mmHg 66%
    01:00 +20°C° 0 mm 2 mps 762 mmHg 67%
    02:00 +20°C° 0 mm 2 mps 762 mmHg 68%
    03:00 +20°C° 0 mm 3 mps 762 mmHg 69%
    04:00 +19°C° 0 mm 3 mps 762 mmHg 70%
    05:00 +19°C° 0 mm 3 mps 763 mmHg 71%
    06:00 +19°C° 0 mm 3 mps 763 mmHg 72%
    07:00 +20°C° 0 mm 3 mps 763 mmHg 67%
    08:00 +21°C° 0 mm 3 mps 764 mmHg 62%
    09:00 +24°C° 0 mm 3 mps 764 mmHg 57%
    10:00 +23°C° 0 mm 4 mps 764 mmHg 54%
    11:00 +25°C° 0 mm 4 mps 763 mmHg 50%
    12:00 +26°C° 0 mm 4 mps 763 mmHg 46%
    13:00 +26°C° 0 mm 4 mps 762 mmHg 46%
    14:00 +26°C° 0 mm 4 mps 762 mmHg 45%
    15:00 +26°C° 0 mm 5 mps 761 mmHg 45%
    16:00 +25°C° 0 mm 4 mps 762 mmHg 47%
    17:00 +23°C° 0 mm 4 mps 762 mmHg 50%
    18:00 +23°C° 0 mm 4 mps 762 mmHg 52%
    19:00 +22°C° 0 mm 4 mps 762 mmHg 54%
    20:00 +22°C° 0 mm 4 mps 763 mmHg 55%
    21:00 +21°C° 0 mm 3 mps 763 mmHg 56%
    22:00 +21°C° 0 mm 3 mps 763 mmHg 58%
    23:00 +21°C° 0 mm 3 mps 763 mmHg 59%

    19 December, Tuesday

    Time Temperature Precipitation Wind Pressure Humidity
    00:00 +20°C° 0 mm 3 mps 763 mmHg 61%
    01:00 +20°C° 0 mm 3 mps 763 mmHg 61%
    02:00 +20°C° 0 mm 3 mps 763 mmHg 62%
    03:00 +20°C° 0 mm 4 mps 763 mmHg 63%
    04:00 +20°C° 0 mm 4 mps 763 mmHg 63%
    05:00 +19°C° 0 mm 4 mps 763 mmHg 63%
    06:00 +19°C° 0 mm 4 mps 764 mmHg 64%
    07:00 +20°C° 0 mm 4 mps 764 mmHg 59%
    08:00 +22°C° 0 mm 4 mps 765 mmHg 54%
    09:00 +23°C° 0 mm 5 mps 765 mmHg 49%
    10:00 +25°C° 0 mm 5 mps 764 mmHg 45%
    11:00 +25°C° 0 mm 5 mps 764 mmHg 42%
    12:00 +26°C° 0 mm 5 mps 764 mmHg 38%
    13:00 +26°C° 0 mm 5 mps 763 mmHg 38%
    14:00 +26°C° 0 mm 5 mps 763 mmHg 39%
    15:00 +26°C° 0 mm 5 mps 762 mmHg 39%
    16:00 +25°C° 0 mm 5 mps 763 mmHg 42%
    17:00 +23°C° 0 mm 4 mps 763 mmHg 46%
    18:00 +22°C° 0 mm 4 mps 763 mmHg 49%
    19:00 +22°C° 0 mm 4 mps 764 mmHg 51%
    20:00 +21°C° 0 mm 4 mps 764 mmHg 53%
    21:00 +21°C° 0 mm 4 mps 764 mmHg 54%
    22:00 +20°C° 0 mm 4 mps 764 mmHg 56%
    23:00 +20°C° 0 mm 3 mps 764 mmHg 58%

    20 December, Wednesday

    Time Temperature Precipitation Wind Pressure Humidity
    00:00 +20°C° 0 mm 3 mps 763 mmHg 59%
    01:00 +19°C° 0 mm 3 mps 763 mmHg 60%
    02:00 +19°C° 0 mm 3 mps 763 mmHg 61%
    03:00 +19°C° 0 mm 3 mps 763 mmHg 62%
    04:00 +19°C° 0 mm 3 mps 763 mmHg 63%
    05:00 +19°C° 0 mm 3 mps 764 mmHg 64%
    06:00 +18°C° 0 mm 3 mps 764 mmHg 65%
    07:00 +20°C° 0 mm 3 mps 764 mmHg 60%
    08:00 +21°C° 0 mm 3 mps 765 mmHg 55%
    09:00 +22°C° 0 mm 3 mps 765 mmHg 50%
    10:00 +24°C° 0 mm 3 mps 765 mmHg 47%
    11:00 +25°C° 0 mm 3 mps 764 mmHg 43%
    12:00 +26°C° 0 mm 3 mps 764 mmHg 39%
    13:00 +26°C° 0 mm 3 mps 763 mmHg 38%
    14:00 +26°C° 0 mm 3 mps 763 mmHg 38%
    15:00 +26°C° 0 mm 3 mps 763 mmHg 37%
    16:00 +25°C° 0 mm 3 mps 763 mmHg 41%
    17:00 +24°C° 0 mm 3 mps 763 mmHg 45%
    18:00 +22°C° 0 mm 3 mps 764 mmHg 49%
    19:00 +22°C° 0 mm 3 mps 764 mmHg 51%
    20:00 +22°C° 0 mm 3 mps 764 mmHg 52%
    21:00 +21°C° 0 mm 2 mps 764 mmHg 54%
    22:00 +21°C° 0 mm 2 mps 764 mmHg 55%
    23:00 +20°C° 0 mm 2 mps 764 mmHg 56%
    Show more